Location: Peebles
(55.6412°N, 3.1714°W)
Time: 21:00:14
(UTC+00:00)

deb Agena D - Pass Details

Date: 21 September 2023
Orbit: 794 x 979 km, 99.8° (Epoch: 28 November)

Event Time Altitude Azimuth Distance (km) Brightness Sun altitude
Rises 23:29:25 0° 26° (NNE) 3,695 10.0 -30.5°
Reaches altitude 10° 23:33:04 10° 47° (NE) 2,742 9.0 -30.8°
Enters shadow 23:35:01 14° 65° (ENE) 2,424 8.5 -30.9°
